TimeCST,TemperatureF,Dew PointF,Humidity,Sea Level PressureIn,VisibilityMPH,Wind Direction,Wind SpeedMPH,Gust SpeedMPH,PrecipitationIn,Events,Conditions,WindDirDegrees,DateUTC
12:12 AM,-27.4,-34.6,69,-9999,10.0,WNW,5.8,-,N/A,,Mostly Cloudy,290,2014-01-06 06:12:00
12:33 AM,-27.4,-34.6,69,-9999,10.0,WNW,5.8,-,N/A,,Mostly Cloudy,300,2014-01-06 06:33:00
12:52 AM,-27.4,-34.6,69,30.07,10.0,WNW,9.2,-,N/A,,Mostly Cloudy,300,2014-01-06 06:52:00
1:13 AM,-27.4,-34.6,69,30.06,10.0,NW,8.1,16.1,N/A,,Scattered Clouds,310,2014-01-06 07:13:00
1:33 AM,-27.4,-34.6,69,30.07,10.0,WNW,9.2,17.3,N/A,,Scattered Clouds,300,2014-01-06 07:33:00
1:52 AM,-27.4,-36.4,62,30.06,10.0,WNW,9.2,-,N/A,,Scattered Clouds,300,2014-01-06 07:52:00
2:13 AM,-29.2,-36.4,68,30.06,10.0,WNW,9.2,-,N/A,,Clear,290,2014-01-06 08:13:00
2:33 AM,-29.2,-36.4,68,30.06,10.0,WNW,8.1,-,N/A,,Clear,290,2014-01-06 08:33:00
2:52 AM,-29.2,-36.4,68,30.06,10.0,WNW,8.1,-,N/A,,Clear,290,2014-01-06 08:52:00
3:13 AM,-29.2,-36.4,68,30.05,10.0,WNW,8.1,-,N/A,,Clear,290,2014-01-06 09:13:00
3:33 AM,-31.0,-36.4,75,30.05,10.0,WNW,8.1,-,N/A,,Clear,290,2014-01-06 09:33:00
3:52 AM,-31.0,-36.4,75,-9999,10.0,WNW,6.9,-,N/A,,Clear,290,2014-01-06 09:52:00
4:13 AM,-31.0,-38.2,68,-9999,10.0,WNW,6.9,-,N/A,,Clear,290,2014-01-06 10:13:00
4:33 AM,-32.8,-38.2,75,-9999,10.0,WNW,4.6,-,N/A,,Clear,290,2014-01-06 10:33:00
4:52 AM,-32.8,-38.2,75,-9999,10.0,WNW,5.8,-,N/A,,Clear,290,2014-01-06 10:52:00
5:13 AM,-32.8,-38.2,75,-9999,10.0,West,4.6,-,N/A,,Clear,270,2014-01-06 11:13:00
5:33 AM,-32.8,-38.2,75,-9999,10.0,West,3.5,-,N/A,,Clear,270,2014-01-06 11:33:00
5:52 AM,-32.8,-38.2,75,-9999,10.0,West,4.6,-,N/A,,Clear,270,2014-01-06 11:52:00
6:13 AM,-32.8,-38.2,75,-9999,10.0,WNW,3.5,-,N/A,,Clear,290,2014-01-06 12:13:00
6:32 AM,-32.8,-38.2,75,-9999,10.0,WNW,3.5,-,N/A,,Clear,290,2014-01-06 12:32:00
6:53 AM,-32.8,-38.2,75,-9999,10.0,West,4.6,-,N/A,,Clear,270,2014-01-06 12:53:00
7:13 AM,-32.8,-38.2,75,-9999,10.0,West,3.5,-,N/A,,Clear,280,2014-01-06 13:13:00
7:33 AM,-32.8,-38.2,75,-9999,10.0,WNW,5.8,-,N/A,,Clear,290,2014-01-06 13:33:00
7:53 AM,-32.8,-38.2,75,-9999,10.0,West,5.8,-,N/A,,Clear,280,2014-01-06 13:53:00
8:13 AM,-31.0,-38.2,68,-9999,10.0,West,6.9,-,N/A,,Clear,280,2014-01-06 14:13:00
8:33 AM,-31.0,-36.4,75,-9999,10.0,West,5.8,-,N/A,,Clear,280,2014-01-06 14:33:00
8:52 AM,-29.2,-36.4,68,-9999,10.0,West,6.9,-,N/A,,Clear,280,2014-01-06 14:52:00
9:13 AM,-29.2,-36.4,68,-9999,10.0,WNW,9.2,16.1,N/A,,Clear,300,2014-01-06 15:13:00
9:33 AM,-27.4,-34.6,69,-9999,10.0,WNW,9.2,-,N/A,,Clear,300,2014-01-06 15:33:00
9:52 AM,-27.4,-34.6,69,-9999,10.0,WNW,10.4,16.1,N/A,,Clear,300,2014-01-06 15:52:00
10:13 AM,-25.6,-34.6,63,30.00,10.0,WNW,13.8,18.4,N/A,,Clear,290,2014-01-06 16:13:00
10:33 AM,-25.6,-34.6,63,29.99,10.0,WNW,11.5,17.3,N/A,,Clear,300,2014-01-06 16:33:00
10:52 AM,-23.8,-34.6,57,29.98,7.0,WNW,10.4,20.7,N/A,,Clear,290,2014-01-06 16:52:00
11:13 AM,-23.8,-32.8,63,29.97,7.0,WNW,10.4,16.1,N/A,,Clear,300,2014-01-06 17:13:00
11:33 AM,-23.8,-32.8,63,29.97,3.0,WNW,10.4,16.1,N/A,,Haze,300,2014-01-06 17:33:00
11:52 AM,-20.2,-32.8,52,29.95,7.0,WNW,13.8,19.6,N/A,,Clear,290,2014-01-06 17:52:00
12:13 PM,-22.0,-32.8,57,29.95,7.0,West,10.4,-,N/A,,Clear,280,2014-01-06 18:13:00
12:33 PM,-20.2,-31.0,58,29.94,7.0,WNW,12.7,18.4,N/A,,Clear,300,2014-01-06 18:33:00
12:52 PM,-18.4,-29.2,58,29.93,10.0,WNW,15.0,-,N/A,,Clear,290,2014-01-06 18:52:00
1:13 PM,-18.4,-29.2,58,29.93,10.0,West,12.7,16.1,N/A,,Clear,270,2014-01-06 19:13:00
1:33 PM,-18.4,-29.2,58,29.92,10.0,West,11.5,16.1,N/A,,Clear,280,2014-01-06 19:33:00
1:52 PM,-18.4,-29.2,58,29.92,7.0,WNW,10.4,18.4,N/A,,Scattered Clouds,290,2014-01-06 19:52:00
2:13 PM,-18.4,-29.2,58,29.92,10.0,West,10.4,-,N/A,,Clear,270,2014-01-06 20:13:00
2:33 PM,-18.4,-27.4,63,29.92,10.0,WNW,11.5,-,N/A,,Clear,290,2014-01-06 20:33:00
2:53 PM,-18.4,-29.2,58,29.92,7.0,West,9.2,-,N/A,,Clear,280,2014-01-06 20:53:00
3:12 PM,-18.4,-27.4,63,29.93,10.0,West,10.4,16.1,N/A,,Scattered Clouds,270,2014-01-06 21:12:00
3:33 PM,-18.4,-27.4,63,29.93,7.0,WNW,9.2,18.4,N/A,,Scattered Clouds,290,2014-01-06 21:33:00
3:53 PM,-20.2,-27.4,69,29.93,10.0,West,8.1,-,N/A,,Scattered Clouds,270,2014-01-06 21:53:00
4:13 PM,-18.4,-27.4,63,29.93,10.0,WNW,11.5,17.3,N/A,,Mostly Cloudy,290,2014-01-06 22:13:00
4:32 PM,-18.4,-27.4,63,29.93,10.0,West,10.4,19.6,N/A,,Mostly Cloudy,280,2014-01-06 22:32:00
4:53 PM,-20.2,-27.4,69,29.93,10.0,West,12.7,18.4,N/A,,Clear,280,2014-01-06 22:53:00
5:13 PM,-20.2,-27.4,69,29.92,10.0,West,8.1,16.1,N/A,,Clear,280,2014-01-06 23:13:00
5:32 PM,-20.2,-27.4,69,29.92,10.0,West,8.1,-,N/A,,Clear,280,2014-01-06 23:32:00
5:53 PM,-20.2,-27.4,69,29.92,10.0,West,9.2,-,N/A,,Clear,270,2014-01-06 23:53:00
6:13 PM,-22.0,-27.4,76,29.92,10.0,West,12.7,16.1,N/A,,Clear,280,2014-01-07 00:13:00
6:32 PM,-22.0,-29.2,69,29.92,10.0,West,8.1,-,N/A,,Clear,270,2014-01-07 00:32:00
6:53 PM,-22.0,-29.2,69,29.92,10.0,West,9.2,16.1,N/A,,Clear,270,2014-01-07 00:53:00
7:13 PM,-22.0,-29.2,69,29.92,10.0,West,9.2,-,N/A,,Clear,280,2014-01-07 01:13:00
7:32 PM,-22.0,-29.2,69,29.91,10.0,West,8.1,-,N/A,,Clear,280,2014-01-07 01:32:00
7:53 PM,-23.8,-29.2,76,29.91,10.0,West,9.2,16.1,N/A,,Clear,270,2014-01-07 01:53:00
8:13 PM,-22.0,-29.2,69,29.91,10.0,West,12.7,18.4,N/A,,Clear,280,2014-01-07 02:13:00
8:33 PM,-23.8,-29.2,76,29.91,10.0,West,10.4,16.1,N/A,,Clear,280,2014-01-07 02:33:00
8:50 PM,-23.8,-29.2,76,29.91,10.0,West,13.8,20.7,N/A,,Clear,270,2014-01-07 02:50:00
9:13 PM,-23.8,-29.2,76,29.91,10.0,West,12.7,20.7,N/A,,Scattered Clouds,270,2014-01-07 03:13:00
9:33 PM,-23.8,-29.2,76,29.91,10.0,West,10.4,21.9,N/A,,Mostly Cloudy,270,2014-01-07 03:33:00
9:52 PM,-23.8,-29.2,76,29.90,10.0,West,12.7,19.6,N/A,,Overcast,270,2014-01-07 03:52:00
10:13 PM,-23.8,-29.2,76,29.89,10.0,West,12.7,-,N/A,,Overcast,260,2014-01-07 04:13:00
10:33 PM,-23.8,-29.2,76,29.89,10.0,West,9.2,-,N/A,,Overcast,260,2014-01-07 04:33:00
10:52 PM,-23.8,-29.2,76,29.88,10.0,West,9.2,-,N/A,,Overcast,260,2014-01-07 04:52:00
11:13 PM,-23.8,-31.0,69,29.88,10.0,West,8.1,-,N/A,,Scattered Clouds,260,2014-01-07 05:13:00
11:33 PM,-25.6,-31.0,76,29.87,10.0,West,5.8,-,N/A,,Clear,260,2014-01-07 05:33:00
11:52 PM,-25.6,-32.8,69,29.87,10.0,West,8.1,-,N/A,,Clear,260,2014-01-07 05:52:00